Location: *
(51.1248°S, 108.4023°W)
Time: 07:56:45
(UTC+00:00)

RESURS O1 DEB - Visible Passes

Search period start: 29 January 2022 00:00
Search period end: 08 February 2022 00:00
Orbit: 610 x 614 km, 97.9° (Epoch: 28 January)

Date Brightness Start Highest point End Pass type
(mag) Time Alt. Az. Time Alt. Az. Time Alt. Az.
29 Jan ? 03:53:46 10° SSE 03:57:44 33° E 04:01:40 10° NNE visible
29 Jan ? 05:29:45 10° S 05:33:41 33° WSW 05:37:35 10° NW visible
30 Jan ? 04:08:23 10° SSE 04:12:37 45° E 04:16:47 10° N visible
30 Jan ? 05:44:45 10° S 05:48:21 25° WSW 05:51:55 10° WNW visible
31 Jan ? 04:23:04 10° SSE 04:27:26 62° E 04:31:45 10° N visible
31 Jan ? 05:59:50 10° SSW 06:02:59 20° WSW 06:06:06 10° WNW visible
01 Feb ? 04:37:47 10° SSE 04:42:13 85° ENE 04:46:34 10° NNW visible
01 Feb ? 06:15:02 10° SSW 06:17:33 15° WSW 06:20:04 10° W visible
02 Feb ? 04:52:32 10° S 04:56:56 71° WSW 05:01:15 10° NNW visible
02 Feb ? 06:30:31 10° SSW 06:32:04 12° SW 06:33:37 10° WSW visible
03 Feb ? 03:32:00 10° SE 03:35:21 21° E 03:38:39 10° NE visible
03 Feb ? 05:07:19 10° S 05:11:35 51° WSW 05:15:48 10° NW visible
04 Feb ? 03:46:22 10° SE 03:50:10 28° E 03:53:55 10° NNE visible
04 Feb ? 05:22:08 10° S 05:26:12 38° WSW 05:30:13 10° NW visible
05 Feb ? 04:00:49 10° SSE 04:04:55 38° E 04:08:58 10° NNE visible
05 Feb ? 05:36:58 10° S 05:40:46 29° WSW 05:44:30 10° WNW visible
06 Feb ? 04:15:20 10° SSE 04:19:38 52° E 04:23:52 10° N visible
06 Feb ? 05:51:52 10° S 05:55:16 22° WSW 05:58:38 10° WNW visible
07 Feb ? 04:29:53 10° SSE 04:34:17 72° ENE 04:38:37 10° N visible
07 Feb ? 06:06:50 10° SSW 06:09:44 17° WSW 06:12:35 10° W visible
